Time,TemperatureF,DewpointF,PressureIn,WindDirection,WindDirectionDegrees,WindSpeedMPH,WindSpeedGustMPH,Humidity,HourlyPrecipIn,Conditions,Clouds,dailyrainin,SoftwareType,DateUTC
2013-03-11 00:02:00,67.0,63.0,30.02,SW,234,2.0,3.0,87,0.00,,,0.00,,2013-03-11 10:02:00,
2013-03-11 00:12:00,67.0,63.0,30.02,SW,234,2.0,3.0,87,0.00,,,0.00,,2013-03-11 10:12:00,
2013-03-11 00:21:00,67.0,63.0,30.02,SSW,212,3.0,6.0,87,0.00,,,0.00,,2013-03-11 10:21:00,
2013-03-11 00:32:00,67.0,63.0,30.02,WSW,239,2.0,4.0,86,0.00,,,0.00,,2013-03-11 10:32:00,
2013-03-11 00:41:00,67.0,63.0,30.02,WSW,239,2.0,4.0,86,0.00,,,0.00,,2013-03-11 10:41:00,
2013-03-11 00:52:00,67.0,62.0,30.02,SW,220,3.0,4.0,85,0.00,,,0.00,,2013-03-11 10:52:00,
2013-03-11 01:01:00,68.0,63.0,30.02,SW,224,2.0,6.0,85,0.00,,,0.00,,2013-03-11 11:01:00,
2013-03-11 01:11:00,68.0,63.0,30.02,SW,224,2.0,6.0,85,0.00,,,0.00,,2013-03-11 11:11:00,
2013-03-11 01:22:00,68.0,63.0,30.01,West,275,2.0,4.0,84,0.00,,,0.00,,2013-03-11 11:22:00,
2013-03-11 01:32:00,68.0,63.0,30.01,WSW,247,2.0,3.0,83,0.00,,,0.00,,2013-03-11 11:32:00,
2013-03-11 01:52:00,68.0,62.0,30.01,SW,233,1.0,5.0,82,0.00,,,0.00,,2013-03-11 11:52:00,
2013-03-11 02:01:00,68.0,62.0,30.01,West,264,1.0,3.0,81,0.00,,,0.00,,2013-03-11 12:01:00,
2013-03-11 02:11:00,68.0,62.0,30.01,West,264,1.0,3.0,81,0.00,,,0.00,,2013-03-11 12:11:00,
2013-03-11 02:22:00,67.0,61.0,30.00,West,262,1.0,4.0,82,0.00,,,0.00,,2013-03-11 12:22:00,
2013-03-11 02:32:00,67.0,61.0,30.00,WSW,248,1.0,3.0,82,0.00,,,0.00,,2013-03-11 12:32:00,
2013-03-11 02:42:00,67.0,61.0,30.00,WSW,248,1.0,3.0,82,0.00,,,0.00,,2013-03-11 12:42:00,
2013-03-11 02:53:00,66.0,60.0,29.99,WSW,247,2.0,3.0,82,0.00,,,0.00,,2013-03-11 12:53:00,
2013-03-11 03:01:00,66.0,60.0,29.99,SW,230,2.0,3.0,82,0.00,,,0.00,,2013-03-11 13:01:00,
2013-03-11 03:12:00,66.0,60.0,29.99,SW,230,2.0,3.0,82,0.00,,,0.00,,2013-03-11 13:12:00,
2013-03-11 03:22:00,65.0,59.0,29.98,SW,226,1.0,3.0,82,0.00,,,0.00,,2013-03-11 13:22:00,
2013-03-11 03:32:00,66.0,60.0,29.98,SSW,209,3.0,5.0,82,0.00,,,0.00,,2013-03-11 13:32:00,
2013-03-11 03:42:00,66.0,60.0,29.98,SSW,209,3.0,5.0,82,0.00,,,0.00,,2013-03-11 13:42:00,
2013-03-11 03:52:00,65.0,59.0,29.98,WSW,237,2.0,4.0,82,0.00,,,0.00,,2013-03-11 13:52:00,
2013-03-11 04:01:00,65.0,59.0,29.97,WSW,237,2.0,4.0,81,0.00,,,0.00,,2013-03-11 14:01:00,
2013-03-11 04:12:00,65.0,59.0,29.97,WSW,237,2.0,4.0,81,0.00,,,0.00,,2013-03-11 14:12:00,
2013-03-11 04:22:00,65.0,59.0,29.97,SW,229,1.0,3.0,82,0.00,,,0.00,,2013-03-11 14:22:00,
2013-03-11 04:32:00,65.0,59.0,29.97,West,260,1.0,2.0,82,0.00,,,0.00,,2013-03-11 14:32:00,
2013-03-11 04:42:00,65.0,59.0,29.97,West,260,1.0,2.0,82,0.00,,,0.00,,2013-03-11 14:42:00,
2013-03-11 04:53:00,65.0,59.0,29.98,SW,236,2.0,4.0,81,0.00,,,0.00,,2013-03-11 14:53:00,
2013-03-11 05:02:00,65.0,59.0,29.98,WSW,243,2.0,5.0,81,0.00,,,0.00,,2013-03-11 15:02:00,
2013-03-11 05:12:00,65.0,59.0,29.98,WSW,243,2.0,5.0,81,0.00,,,0.00,,2013-03-11 15:12:00,
2013-03-11 05:22:00,64.0,58.0,29.98,WSW,254,2.0,3.0,81,0.00,,,0.00,,2013-03-11 15:22:00,
2013-03-11 05:31:00,64.0,58.0,29.98,WSW,237,1.0,3.0,81,0.00,,,0.00,,2013-03-11 15:31:00,
2013-03-11 05:42:00,64.0,58.0,29.98,WSW,237,1.0,3.0,81,0.00,,,0.00,,2013-03-11 15:42:00,
2013-03-11 05:53:00,64.0,58.0,29.99,SW,226,2.0,4.0,82,0.00,,,0.00,,2013-03-11 15:53:00,
2013-03-11 06:02:00,64.0,58.0,29.99,WSW,237,2.0,3.0,82,0.00,,,0.00,,2013-03-11 16:02:00,
2013-03-11 06:12:00,64.0,58.0,29.99,WSW,237,2.0,3.0,82,0.00,,,0.00,,2013-03-11 16:12:00,
2013-03-11 06:22:00,64.0,58.0,30.00,WSW,243,2.0,3.0,82,0.00,,,0.00,,2013-03-11 16:22:00,
2013-03-11 06:32:00,64.0,58.0,30.01,WSW,241,3.0,5.0,82,0.00,,,0.00,,2013-03-11 16:32:00,
2013-03-11 06:42:00,64.0,58.0,30.01,WSW,241,3.0,5.0,82,0.00,,,0.00,,2013-03-11 16:42:00,
2013-03-11 06:52:00,63.0,57.0,30.01,WSW,244,2.0,4.0,82,0.00,,,0.00,,2013-03-11 16:52:00,
2013-03-11 07:02:00,62.0,57.0,30.01,WSW,253,3.0,4.0,83,0.00,,,0.00,,2013-03-11 17:02:00,
2013-03-11 07:13:00,62.0,57.0,30.01,WSW,253,3.0,4.0,83,0.00,,,0.00,,2013-03-11 17:13:00,
2013-03-11 07:23:00,63.0,58.0,30.02,SW,232,2.0,4.0,83,0.00,,,0.00,,2013-03-11 17:23:00,
2013-03-11 07:33:00,64.0,59.0,30.03,WSW,239,2.0,4.0,83,0.00,,,0.00,,2013-03-11 17:33:00,
2013-03-11 07:42:00,64.0,59.0,30.03,WSW,239,2.0,4.0,83,0.00,,,0.00,,2013-03-11 17:42:00,
2013-03-11 07:53:00,65.0,60.0,30.03,WSW,238,1.0,4.0,83,0.00,,,0.00,,2013-03-11 17:53:00,
2013-03-11 08:01:00,66.0,60.0,30.04,SW,226,1.0,4.0,82,0.00,,,0.00,,2013-03-11 18:01:00,
2013-03-11 08:11:00,66.0,60.0,30.04,SW,226,1.0,4.0,82,0.00,,,0.00,,2013-03-11 18:11:00,
2013-03-11 08:22:00,67.0,61.0,30.04,SW,215,1.0,4.0,81,0.00,,,0.00,,2013-03-11 18:22:00,
2013-03-11 08:32:00,69.0,63.0,30.05,SW,215,1.0,4.0,81,0.00,,,0.00,,2013-03-11 18:32:00,
2013-03-11 08:42:00,69.0,63.0,30.05,SW,215,1.0,4.0,81,0.00,,,0.00,,2013-03-11 18:42:00,
2013-03-11 08:52:00,72.0,65.0,30.05,SW,235,1.0,2.0,79,0.00,,,0.00,,2013-03-11 18:52:00,
2013-03-11 09:02:00,74.0,66.0,30.06,WNW,300,1.0,5.0,77,0.00,,,0.00,,2013-03-11 19:02:00,
2013-03-11 09:12:00,74.0,66.0,30.06,WNW,300,1.0,5.0,77,0.00,,,0.00,,2013-03-11 19:12:00,
2013-03-11 09:22:00,76.0,68.0,30.06,ENE,58,2.0,3.0,76,0.00,,,0.00,,2013-03-11 19:22:00,
2013-03-11 09:32:00,76.0,67.0,30.06,ENE,58,3.0,6.0,73,0.00,,,0.00,,2013-03-11 19:32:00,
2013-03-11 09:42:00,76.0,67.0,30.06,ENE,58,3.0,6.0,73,0.00,,,0.00,,2013-03-11 19:42:00,
2013-03-11 09:52:00,76.0,68.0,30.05,NNE,20,2.0,6.0,77,0.00,,,0.00,,2013-03-11 19:52:00,
2013-03-11 10:01:00,76.0,67.0,30.05,NE,54,4.0,6.0,75,0.00,,,0.00,,2013-03-11 20:01:00,
2013-03-11 10:11:00,76.0,67.0,30.05,NE,54,4.0,6.0,75,0.00,,,0.00,,2013-03-11 20:11:00,
2013-03-11 10:22:00,76.0,67.0,30.05,ENE,62,4.0,6.0,74,0.00,,,0.00,,2013-03-11 20:22:00,
2013-03-11 10:32:00,75.0,67.0,30.05,ENE,63,4.0,6.0,77,0.00,,,0.00,,2013-03-11 20:32:00,
2013-03-11 10:42:00,75.0,67.0,30.05,ENE,63,4.0,6.0,77,0.00,,,0.00,,2013-03-11 20:42:00,
2013-03-11 10:53:00,75.0,67.0,30.05,NE,54,5.0,7.0,77,0.00,,,0.00,,2013-03-11 20:53:00,
2013-03-11 11:02:00,76.0,68.0,30.04,NE,54,6.0,8.0,77,0.00,,,0.00,,2013-03-11 21:02:00,
2013-03-11 11:12:00,76.0,68.0,30.04,NE,54,6.0,8.0,77,0.00,,,0.00,,2013-03-11 21:12:00,
2013-03-11 11:22:00,76.0,69.0,30.04,NE,48,7.0,10.0,79,0.00,,,0.00,,2013-03-11 21:22:00,
2013-03-11 11:32:00,75.0,68.0,30.03,NE,42,8.0,12.0,80,0.00,,,0.00,,2013-03-11 21:32:00,
2013-03-11 11:42:00,75.0,68.0,30.03,NE,42,8.0,12.0,80,0.00,,,0.00,,2013-03-11 21:42:00,
2013-03-11 11:53:00,75.0,70.0,30.02,East,81,7.0,12.0,84,0.00,,,0.00,,2013-03-11 21:53:00,
2013-03-11 12:02:00,74.0,70.0,30.01,East,85,7.0,14.0,88,0.00,,,0.00,,2013-03-11 22:02:00,
2013-03-11 12:12:00,74.0,70.0,30.01,East,85,7.0,14.0,88,0.00,,,0.00,,2013-03-11 22:12:00,
2013-03-11 12:22:00,74.0,71.0,30.00,ENE,76,7.0,14.0,89,0.00,,,0.00,,2013-03-11 22:22:00,
2013-03-11 12:32:00,74.0,70.0,29.99,East,81,7.0,14.0,88,0.00,,,0.00,,2013-03-11 22:32:00,
2013-03-11 12:43:00,74.0,70.0,29.99,East,81,7.0,14.0,88,0.00,,,0.00,,2013-03-11 22:43:00,
2013-03-11 12:53:00,74.0,70.0,29.98,East,81,8.0,16.0,88,0.00,,,0.00,,2013-03-11 22:53:00,
2013-03-11 13:02:00,77.0,70.0,29.98,SSE,159,11.0,19.0,80,0.00,,,0.00,,2013-03-11 23:02:00,
2013-03-11 13:12:00,77.0,70.0,29.98,SSE,159,11.0,19.0,80,0.00,,,0.00,,2013-03-11 23:12:00,
2013-03-11 13:22:00,79.0,71.0,29.98,West,275,2.0,15.0,77,0.00,,,0.00,,2013-03-11 23:22:00,
2013-03-11 13:32:00,80.0,71.0,29.97,East,94,3.0,7.0,74,0.00,,,0.00,,2013-03-11 23:32:00,
2013-03-11 13:42:00,80.0,71.0,29.97,East,94,3.0,7.0,74,0.00,,,0.00,,2013-03-11 23:42:00,
2013-03-11 13:53:00,80.0,71.0,29.96,SW,235,1.0,7.0,75,0.00,,,0.00,,2013-03-11 23:53:00,
2013-03-11 14:02:00,81.0,72.0,29.96,West,277,1.0,4.0,74,0.00,,,0.00,,2013-03-12 00:02:00,
2013-03-11 14:12:00,81.0,72.0,29.96,West,277,1.0,4.0,74,0.00,,,0.00,,2013-03-12 00:12:00,
2013-03-11 14:22:00,80.0,70.0,29.95,North,9,7.0,11.0,72,0.00,,,0.00,,2013-03-12 00:22:00,
2013-03-11 14:32:00,79.0,71.0,29.94,NW,310,6.0,10.0,76,0.00,,,0.00,,2013-03-12 00:32:00,
2013-03-11 14:42:00,79.0,71.0,29.94,NW,310,6.0,10.0,76,0.00,,,0.00,,2013-03-12 00:42:00,
2013-03-11 14:53:00,79.0,70.0,29.94,NW,308,3.0,8.0,75,0.00,,,0.00,,2013-03-12 00:53:00,
2013-03-11 15:02:00,79.0,71.0,29.95,SW,232,3.0,6.0,77,0.14,,,0.14,,2013-03-12 01:02:00,
2013-03-11 15:11:00,79.0,71.0,29.95,SW,232,3.0,6.0,77,0.14,,,0.14,,2013-03-12 01:11:00,
2013-03-11 15:22:00,76.0,69.0,29.94,East,98,3.0,9.0,79,0.18,,,0.18,,2013-03-12 01:22:00,
2013-03-11 15:32:00,74.0,68.0,29.94,ENE,76,5.0,14.0,83,0.27,,,0.27,,2013-03-12 01:32:00,
2013-03-11 15:42:00,74.0,68.0,29.94,ENE,76,5.0,14.0,83,0.27,,,0.27,,2013-03-12 01:42:00,
2013-03-11 15:52:00,75.0,70.0,29.94,West,279,1.0,8.0,85,0.27,,,0.27,,2013-03-12 01:52:00,
2013-03-11 16:01:00,76.0,72.0,29.94,ESE,120,6.0,8.0,86,0.12,,,0.27,,2013-03-12 02:01:00,
2013-03-11 16:12:00,76.0,72.0,29.94,ESE,120,6.0,8.0,86,0.12,,,0.27,,2013-03-12 02:12:00,
2013-03-11 16:22:00,75.0,70.0,29.94,NW,305,6.0,9.0,85,0.09,,,0.27,,2013-03-12 02:22:00,
2013-03-11 16:32:00,75.0,71.0,29.95,WNW,284,6.0,12.0,86,0.00,,,0.27,,2013-03-12 02:32:00,
2013-03-11 16:42:00,75.0,71.0,29.95,WNW,284,6.0,12.0,86,0.00,,,0.27,,2013-03-12 02:42:00,
2013-03-11 16:52:00,74.0,70.0,29.95,WNW,288,5.0,12.0,87,0.00,,,0.27,,2013-03-12 02:52:00,
2013-03-11 17:01:00,73.0,69.0,29.96,NW,304,7.0,11.0,87,0.00,,,0.27,,2013-03-12 03:01:00,
2013-03-11 17:12:00,73.0,69.0,29.96,NW,304,7.0,11.0,87,0.00,,,0.27,,2013-03-12 03:12:00,
2013-03-11 17:22:00,73.0,69.0,29.96,SW,226,3.0,10.0,88,0.00,,,0.27,,2013-03-12 03:22:00,
2013-03-11 17:32:00,72.0,68.0,29.97,SSE,156,1.0,3.0,88,0.00,,,0.27,,2013-03-12 03:32:00,
2013-03-11 17:42:00,72.0,68.0,29.97,SSE,156,1.0,3.0,88,0.00,,,0.27,,2013-03-12 03:42:00,
2013-03-11 17:52:00,72.0,68.0,29.97,WSW,239,0.0,3.0,88,0.00,,,0.27,,2013-03-12 03:52:00,
2013-03-11 18:02:00,71.0,68.0,29.98,NW,304,5.0,10.0,89,0.01,,,0.28,,2013-03-12 04:02:00,
2013-03-11 18:12:00,71.0,68.0,29.98,NW,304,5.0,10.0,89,0.01,,,0.28,,2013-03-12 04:12:00,
2013-03-11 18:22:00,70.0,67.0,29.98,WNW,284,4.0,9.0,90,0.01,,,0.28,,2013-03-12 04:22:00,
2013-03-11 18:32:00,70.0,67.0,29.98,NW,309,4.0,8.0,91,0.01,,,0.28,,2013-03-12 04:32:00,
2013-03-11 18:42:00,70.0,67.0,29.98,NW,309,4.0,8.0,91,0.01,,,0.28,,2013-03-12 04:42:00,
2013-03-11 18:52:00,70.0,67.0,30.00,WSW,245,1.0,4.0,91,0.01,,,0.28,,2013-03-12 04:52:00,
2013-03-11 19:02:00,70.0,68.0,30.00,WSW,245,1.0,2.0,92,0.00,,,0.28,,2013-03-12 05:02:00,
2013-03-11 19:11:00,70.0,68.0,30.00,WSW,245,1.0,2.0,92,0.00,,,0.28,,2013-03-12 05:11:00,
2013-03-11 19:21:00,70.0,68.0,30.00,West,281,1.0,4.0,92,0.00,,,0.28,,2013-03-12 05:21:00,
2013-03-11 19:31:00,70.0,68.0,30.02,WNW,284,1.0,3.0,92,0.00,,,0.28,,2013-03-12 05:31:00,
2013-03-11 19:42:00,70.0,68.0,30.02,WNW,284,1.0,3.0,92,0.00,,,0.28,,2013-03-12 05:42:00,
2013-03-11 19:52:00,70.0,68.0,30.02,WNW,295,3.0,6.0,93,0.00,,,0.28,,2013-03-12 05:52:00,
2013-03-11 20:01:00,70.0,68.0,30.04,WNW,303,3.0,5.0,93,0.00,,,0.28,,2013-03-12 06:01:00,
2013-03-11 20:11:00,70.0,68.0,30.04,WNW,303,3.0,5.0,93,0.00,,,0.28,,2013-03-12 06:11:00,
2013-03-11 20:22:00,69.0,67.0,30.03,WNW,289,2.0,5.0,93,0.00,,,0.28,,2013-03-12 06:22:00,
2013-03-11 20:31:00,69.0,67.0,30.04,WNW,285,2.0,4.0,93,0.00,,,0.28,,2013-03-12 06:31:00,
2013-03-11 20:42:00,69.0,67.0,30.04,WNW,285,2.0,4.0,93,0.00,,,0.28,,2013-03-12 06:42:00,
2013-03-11 20:52:00,69.0,67.0,30.03,NW,306,2.0,6.0,93,0.00,,,0.28,,2013-03-12 06:52:00,
2013-03-11 21:01:00,69.0,67.0,30.04,NW,308,2.0,4.0,93,0.00,,,0.28,,2013-03-12 07:01:00,
2013-03-11 21:12:00,69.0,67.0,30.04,NW,308,2.0,4.0,93,0.00,,,0.28,,2013-03-12 07:12:00,
2013-03-11 21:21:00,69.0,67.0,30.05,WNW,291,1.0,2.0,93,0.00,,,0.28,,2013-03-12 07:21:00,
2013-03-11 21:32:00,69.0,67.0,30.06,SW,229,3.0,3.0,93,0.00,,,0.28,,2013-03-12 07:32:00,
2013-03-11 21:42:00,69.0,67.0,30.06,SW,229,3.0,3.0,93,0.00,,,0.28,,2013-03-12 07:42:00,
2013-03-11 21:52:00,69.0,67.0,30.06,SW,228,2.0,4.0,93,0.00,,,0.28,,2013-03-12 07:52:00,
2013-03-11 22:01:00,69.0,67.0,30.06,SW,234,1.0,3.0,93,0.00,,,0.28,,2013-03-12 08:01:00,
2013-03-11 22:12:00,69.0,67.0,30.06,SW,234,1.0,3.0,93,0.00,,,0.28,,2013-03-12 08:12:00,
2013-03-11 22:22:00,69.0,67.0,30.06,SW,218,2.0,4.0,94,0.00,,,0.28,,2013-03-12 08:22:00,
2013-03-11 22:32:00,69.0,67.0,30.05,SSW,210,2.0,4.0,94,0.00,,,0.28,,2013-03-12 08:32:00,
2013-03-11 22:42:00,69.0,67.0,30.05,SSW,210,2.0,4.0,94,0.00,,,0.28,,2013-03-12 08:42:00,
2013-03-11 22:52:00,69.0,67.0,30.06,SW,216,0.0,3.0,94,0.00,,,0.28,,2013-03-12 08:52:00,
2013-03-11 23:02:00,69.0,67.0,30.06,SW,235,0.0,3.0,94,0.00,,,0.28,,2013-03-12 09:02:00,
2013-03-11 23:11:00,69.0,67.0,30.06,SW,235,0.0,3.0,94,0.00,,,0.28,,2013-03-12 09:11:00,
2013-03-11 23:22:00,69.0,67.0,30.06,SW,227,1.0,4.0,94,0.00,,,0.28,,2013-03-12 09:22:00,
2013-03-11 23:32:00,69.0,67.0,30.05,SW,235,1.0,3.0,94,0.00,,,0.28,,2013-03-12 09:32:00,
2013-03-11 23:42:00,69.0,67.0,30.05,SW,235,1.0,3.0,94,0.00,,,0.28,,2013-03-12 09:42:00,
2013-03-11 23:52:00,69.0,67.0,30.04,SW,231,0.0,1.0,94,0.00,,,0.28,,2013-03-12 09:52:00,